User: anonymous   Login
Location: Unspecified
(0.0000°N, 0.0000°E)
Time: 13:48:09
(UTC+00:00)
Language:

BEESAT - Orbit

View from above orbital plane
View from above orbital plane
View from above satellite
View from above satellite

Ground track
Ground track

The orbit data is extracted from the following two-line orbital elements,

1 35933U 09051C   17114.93641955 +.00000295 +00000-0 +77719-4 0  9995
2 35933 098.4906 253.7907 0007013 073.5843 286.6124 14.56114943402592
Epoch (UTC): 24 April 2017 22:28:26
Eccentricity: 0.0007013
inclination: 98.4906°
perigee height: 701 km
apogee height: 711 km
right ascension of ascending node: 253.7907°
argument of perigee: 73.5843°
revolutions per day: 14.56114943
mean anomaly at epoch: 286.6124°
orbit number at epoch: 40259

The dashed part of the orbit path shows where the satellite is in the earth's shadow,  

DLR